#timestamp,LO_Frequency,Hit,StdDev 
1524020415.5,286047011.9,Y
1524020435.4,286047001.0,P
1524020455.2,286046998.9,N
1524020475.0,286046998.2,N
1524020475.9,286046998.2,N
1524020495.8,286047000.8,N
1524020515.6,286047000.3,N
1524020535.5,286046998.4,N
1524020555.3,286047000.4,N
1524020575.1,286046999.9,N
1524020595.9,286047001.3,N
1524020615.7,286047001.6,N
1524020635.5,286047001.6,N
1524020655.4,286047001.6,N
1524020675.2,286047001.6,N
1524020695.1,286047002.8,N
1524020696.0,286047002.8,N
1524020715.8,286047000.7,N
1524020735.6,286047002.7,N
1524020755.5,286046999.8,N
1524020775.3,286046999.8,N
1524020795.1,286047000.0,N
1524020815.9,286047001.2,N
1524020835.7,286047000.5,N
1524020855.6,286046998.1,N
1524020875.6,286046998.6,N
1524020895.4,286046998.8,N
1524020915.2,286047001.2,N
1524020935.1,286047001.2,N
1524020936.0,286047001.2,N
1524020955.8,286047000.0,N
1524020975.7,286047000.7,N
1524020995.5,286047001.2,N
1524021015.3,286046996.7,N
1524021035.2,286046998.7,N
1524021055.0,286046998.4,N
1524021055.9,286046998.4,N
1524021075.8,286046999.2,N
1524021095.6,286046998.1,N
1524021115.4,286047000.5,N
1524021135.3,286047000.7,N
1524021155.1,286046998.1,N
1524021175.8,286046998.2,N
1524021195.7,286047000.5,N
1524021215.5,286047001.0,N
1524021235.4,286047011.9,Y
1524021255.2,286047000.2,P
1524021275.0,286047000.4,P
1524021275.9,286047000.4,N
1524021295.8,286047000.1,N
1524021315.6,286046999.9,N
1524021335.5,286047002.7,Y
1524021355.3,286046999.7,P
1524021375.1,286047002.4,P
1524021395.9,286047004.4,P
1524021415.7,286047002.1,N
1524021435.5,286046999.9,N
1524021455.4,286047002.6,N
1524021475.2,286046998.2,N
1524021495.1,286046996.9,N
1524021496.0,286046996.9,N
1524021515.8,286046998.3,N
1524021535.6,286047001.2,N
1524021555.5,286046998.3,N
1524021575.3,286046998.2,N
1524021595.2,286046998.6,N
1524021615.9,286046997.1,N
1524021635.7,286046994.9,N
1524021655.6,286046995.2,N
1524021675.4,286046995.4,N
1524021695.2,286046995.7,N
1524021715.1,286046997.4,N
1524021716.0,286046997.4,N
1524021735.8,286046997.0,N
1524021755.7,286046996.7,N
1524021775.5,286046997.3,N
1524021795.3,286046995.2,N
1524021815.2,286046995.3,N
1524021835.0,286046995.8,N
1524021835.9,286046995.8,N
1524021855.7,286046995.5,N
1524021875.6,286046995.1,N
1524021895.4,286046997.8,N
1524021915.3,286046997.5,N
1524021935.1,286046998.0,N
1524021936.0,286046998.0,N
1524021955.8,286046995.6,N
1524021975.7,286046997.7,N
1524021995.5,286046997.0,N
1524022015.4,286046999.1,N
1524022035.2,286046997.5,N
1524022055.0,286046995.1,Y
1524022055.9,286046995.1,P
1524022075.8,286046997.5,N
1524022095.6,286046997.4,N
1524022115.4,286046997.2,N
1524022135.3,286046996.9,Y
1524022155.1,286047002.1,P
1524022175.9,286047002.5,N
1524022195.7,286047004.1,N
1524022215.6,286047003.6,N
1524022235.4,286046999.8,N
1524022255.2,286047000.8,N
1524022275.1,286047000.9,N
1524022276.0,286047000.9,N
1524022295.8,286047000.4,N
1524022315.6,286047000.9,N
1524022335.5,286047002.8,N
1524022355.3,286047002.8,N
1524022375.2,286047002.1,N
1524022395.9,286047002.4,N
1524022415.7,286047001.8,N
1524022435.6,286047003.7,N
1524022455.4,286047005.9,Y
1524022475.2,286047001.5,P
1524022495.1,286047002.3,P
1524022496.0,286047002.3,P
1524022515.8,286047002.5,Y
1524022535.7,286047000.4,P
1524022555.5,286046998.3,N
1524022575.3,286047000.4,N
1524022595.2,286046998.4,N
1524022615.0,286046998.7,N
1524022615.9,286046998.7,N
1524022635.8,286046999.1,N
1524022655.6,286046996.5,N
1524022675.4,286046996.5,N
1524022695.3,286046997.6,N
1524022715.1,286046995.7,N
1524022735.8,286046995.0,N
1524022755.7,286046997.6,N
1524022775.5,286046999.2,N
1524022795.4,286046999.1,N
1524022815.2,286046998.8,N
1524022835.0,286046999.0,N
1524022835.9,286046999.0,N
1524022855.8,286046996.9,N
1524022875.6,286046997.0,N
1524022895.4,286046997.5,N
1524022915.3,286046995.2,Y
1524022935.1,286046999.6,P
1524022955.9,286046999.1,N
1524022975.7,286046999.1,N
1524022995.5,286046996.6,Y
1524023015.4,286046998.5,P
1524023035.2,286046999.4,N
1524023055.1,286046999.5,N
1524023056.0,286046999.5,N
1524023075.8,286046996.9,Y
1524023095.6,286046998.8,P
1524023115.5,286046997.7,P
1524023135.3,286046997.4,P
1524023155.2,286046996.8,Y
1524023175.9,286046998.6,P
1524023195.7,286047000.9,P
1524023215.6,286047000.3,N
1524023235.4,286047002.3,N
1524023255.2,286047001.8,N
1524023275.1,286047001.6,N
1524023276.0,286047001.6,N
1524023295.8,286047004.1,N
1524023315.7,286047001.3,N
1524023335.5,286047002.0,N
1524023355.3,286047002.7,N
1524023375.2,286047002.1,N
1524023395.0,286047003.9,N
1524023395.9,286047003.9,N
1524023415.8,286047004.4,N
1524023435.6,286047003.3,N
1524023455.4,286047002.9,N
1524023475.3,286047006.0,Y
1524023495.1,286047001.9,P
1524023515.9,286047001.9,P
1524023535.7,286047001.7,P
1524023555.5,286047001.8,Y
1524023575.4,286047000.9,P
1524023595.2,286046998.1,P
1524023615.0,286046999.0,N
1524023615.9,286046999.0,N
1524023635.8,286046999.6,N
1524023655.6,286046999.0,N
1524023675.5,286046999.0,N
1524023695.3,286046996.7,N
1524023715.1,286047001.1,N
1524023735.9,286047000.5,N
1524023755.7,286047000.8,N
1524023775.6,286047001.1,N
1524023795.4,286047001.2,N
1524023815.2,286047001.2,N
1524023835.1,286047000.4,N
1524023836.0,286047000.4,N
1524023855.8,286047000.8,N
1524023875.7,286046998.3,N
1524023895.5,286047000.8,N
1524023915.3,286047000.9,N
1524023935.2,286047000.6,N
1524023955.0,286046999.4,N
1524023955.9,286046999.4,N
1524023975.7,286046999.1,N
1524023995.6,286046996.7,N
